Flag for Germany Weather past 2 weeks in Nürburg, Rhineland-Palatinate, Germany

Now
57 °F

Overcast.


Feels Like: 56 °F
Forecast: 44 / 72 °F
Wind: 6 mph from Southwest

Location: Nuerburg-Barweiler

Current Time: Jun 3, 2015 at 7:51:25 AM

Latest Report: Jun 3, 2015 at 7:00 AM


Visibility: 25 mi

Pressure: 30.07 "Hg

Humidity: 80%

Dew point: 51 °F

Location of NürburgLocation

Historic Weather in Nürburg — Graph

°F

Nürburg temperature yesterday

Maximum temperature yesterday: 69 °F (at 7:00 PM)
Minimum temperature yesterday: 46 °F (at 1:00 AM)
Average temperature yesterday: 58 °F

Past Weeks' High & Low Weather Summary

 TemperatureHumidityPressure
High69 °F (Jun 2, 7:00 PM)96% (May 24, 5:00 AM)30.36 "Hg (May 24, 5:00 AM)
Low37 °F (May 21, 6:00 AM)36% (May 22, 2:00 PM)29.76 "Hg (May 19, 6:00 AM)
Average52 °F69%30.05 "Hg
* Reported May 19 6:00 AM — Jun 3 6:00 AM, Nürburg, Weather by CustomWeather, © 2015

Note: Actual official high and low records may vary slightly from our data, if they occured in-between our weather recording intervals... More about our weather records

Advertising

Nürburg weather history for previous 24 hours

 ConditionsComfort  
Time TempWeatherWind HumidityBarometerVisibility
6:00 AM
Wed, Jun 3
56 °FScattered clouds.7 mph82%30.06 "Hg19 mi
4:00 AM58 °FClear.6 mph78%30.04 "Hg25 mi
3:00 AM59 °FClear.6 mph72%30.02 "Hg31 mi
2:00 AM60 °FClear.6 mph67%30.01 "Hg34 mi
1:00 AM62 °FClear.7 mph62%29.99 "Hg34 mi
12:00 AM63 °FPassing clouds.7 mph61%29.98 "Hg40 mi
10:00 PM
Tue, Jun 2
65 °FOvercast.6 mph59%29.98 "Hg37 mi
9:00 PM66 °FPartly sunny.7 mph56%29.96 "Hg28 mi
8:00 PM68 °FScattered clouds.7 mph50%29.93 "Hg22 mi
7:00 PM69 °FScattered clouds.8 mph48%29.92 "Hg25 mi
6:00 PM69 °FScattered clouds.8 mph48%29.92 "Hg28 mi
4:00 PM69 °FPartly sunny.8 mph49%29.91 "Hg31 mi
3:00 PM67 °FPartly sunny.10 mph53%29.90 "Hg31 mi
2:00 PM66 °FScattered clouds.9 mph52%29.91 "Hg28 mi
1:00 PM61 °FScattered clouds.9 mph55%29.93 "Hg28 mi
12:00 PM58 °FPartly sunny.8 mph61%29.94 "Hg31 mi
11:00 AM56 °FOvercast.8 mph56%29.94 "Hg28 mi
10:00 AM53 °FOvercast.7 mph72%29.93 "Hg22 mi
9:00 AM51 °FLight rain. Overcast.8 mph77%29.94 "Hg19 mi
8:00 AM51 °FLow clouds.7 mph80%29.94 "Hg18 mi
7:00 AM51 °FLight rain. Overcast.6 mph83%29.93 "Hg14 mi
Weather by CustomWeather, © 2015

See weather overviewHow to use our weather pages